FW7829 Weather Reports


time (UTC)temp
F
wind
direction
speed
knots
gust
knots
rain 1hr
in
rain 24hr
in
rain mn
in
humidity
%
barometer
mb
20260506002334 75 31 1.7 2.6 0.00 0.00 0.00 70 1004.0
20260506001830 75 244 1.7 1.7 0.00 0.00 0.00 70 1003.7
20260506001327 76 315 3.5 4.3 0.00 0.00 0.00 70 1003.5
20260506000824 77 338 3.5 5.2 0.00 0.00 0.00 70 1003.8
20260506000323 78 303 5.2 7.8 0.00 0.00 0.00 68 1003.7
20260505235818 78 26 5.2 7.8 0.00 0.00 0.00 67 1003.0
20260505235316 78 321 5.2 8.7 0.00 0.00 0.00 67 1003.0
20260505234813 79 341 4.3 6.1 0.00 0.00 0.00 66 1003.3
20260505234311 79 323 2.6 2.6 0.00 0.00 0.00 66 1003.1
20260505233807 80 276 4.3 7.0 0.00 0.00 0.00 66 1003.1
20260505233305 80 11 4.3 5.2 0.00 0.00 0.00 65 1003.0
20260505232802 81 317 2.6 4.3 0.00 0.00 0.00 64 1003.1
20260505232259 81 332 4.3 7.0 0.00 0.00 0.00 63 1003.1
20260505231755 82 17 5.2 7.0 0.00 0.00 0.00 62 1002.8
20260505231254 84 333 7.0 7.8 0.00 0.00 0.00 61 1002.8
20260505230752 84 5 0.9 1.7 0.00 0.00 0.00 57 1002.5
20260505230249 85 297 0.0 0.9 0.00 0.00 0.00 56 1002.5
20260505225745 85 311 4.3 5.2 0.00 0.00 0.00 54 1001.9
20260505225243 86 355 1.7 1.7 0.00 0.00 0.00 52 1002.3
20260505224737 86 14 1.7 2.6 0.00 0.00 0.00 52 1002.4
20260505224235 87 282 2.6 4.3 0.00 0.00 0.00 51 1002.4
20260505223733 88 310 2.6 2.6 0.00 0.00 0.00 50 1002.5
20260505223229 90 298 4.3 6.1 0.00 0.00 0.00 52 1001.9
20260505222725 90 287 1.7 2.6 0.00 0.00 0.00 53 1001.4
20260505222221 91 253 2.6 4.3 0.00 0.00 0.00 54 1001.4
20260505221719 91 241 3.5 4.3 0.00 0.00 0.00 53 1001.7
20260505221215 91 263 6.1 8.7 0.00 0.00 0.00 53 1001.6
20260505220712 91 258 0.9 1.7 0.00 0.00 0.00 54 1001.6
20260505220210 90 282 0.9 0.9 0.00 0.00 0.00 55 1001.6
20260505215708 90 291 0.0 0.0 0.00 0.00 0.00 56 1001.7
20260505215205 91 291 0.9 0.9 0.00 0.00 0.00 56 1001.7
20260505214703 90 261 0.9 0.9 0.00 0.00 0.00 56 1001.9
20260505214200 91 229 0.9 0.9 0.00 0.00 0.00 56 1001.8
20260505213657 91 271 0.0 0.9 0.00 0.00 0.00 56 1001.8
20260505213154 90 229 0.9 0.9 0.00 0.00 0.00 57 1001.9
20260505212650 89 271 0.0 0.9 0.00 0.00 0.00 57 1001.8
20260505212148 89 211 4.3 5.2 0.00 0.00 0.00 57 1002.0
20260505211645 91 244 2.6 5.2 0.00 0.00 0.00 57 1001.8
20260505211142 90 319 0.0 0.0 0.00 0.00 0.00 57 1002.2
20260505210638 89 280 3.5 6.1 0.00 0.00 0.00 58 1002.3
20260505210135 89 197 4.3 6.1 0.00 0.00 0.00 58 1002.2
20260505205633 90 263 4.3 5.2 0.00 0.00 0.00 57 1002.4
20260505205131 89 263 0.0 0.9 0.00 0.00 0.00 58 1002.3
20260505204627 89 323 3.5 7.0 0.00 0.00 0.00 57 1002.3
20260505204125 88 95 1.7 2.6 0.00 0.00 0.00 60 1002.5
20260505203621 88 225 1.7 1.7 0.00 0.00 0.00 61 1002.8
20260505203119 88 225 0.9 0.9 0.00 0.00 0.00 62 1002.8
20260505202614 90 300 0.9 0.9 0.00 0.00 0.00 61 1002.8
20260505202111 89 301 0.0 0.0 0.00 0.00 0.00 61 1002.6
20260505201607 89 215 0.9 0.9 0.00 0.00 0.00 62 1002.9
20260505201105 88 303 0.0 0.9 0.00 0.00 0.00 62 1002.5
20260505200603 88 228 3.5 4.3 0.00 0.00 0.00 61 1002.6
20260505200059 87 246 1.7 2.6 0.00 0.00 0.00 62 1002.6
20260505195555 88 200 6.1 8.7 0.00 0.00 0.00 62 1002.6
20260505195053 87 272 0.9 0.9 0.00 0.00 0.00 64 1002.6
20260505194550 87 250 1.7 2.6 0.00 0.00 0.00 65 1002.7
20260505194046 87 234 0.9 1.7 0.00 0.00 0.00 66 1002.9
20260505193543 86 295 2.6 5.2 0.00 0.00 0.00 66 1002.9
20260505193040 86 294 2.6 4.3 0.00 0.00 0.00 67 1002.8
20260505192539 86 314 0.9 0.9 0.00 0.00 0.00 66 1002.7
20260505192036 86 200 1.7 2.6 0.00 0.00 0.00 65 1002.9
20260505191534 86 208 1.7 4.3 0.00 0.00 0.00 66 1002.9
20260505191032 85 227 4.3 7.0 0.00 0.00 0.00 67 1002.9
20260505190526 86 159 0.9 0.9 0.00 0.00 0.00 66 1003.0
20260505190023 85 163 1.7 2.6 0.00 0.00 0.00 67 1002.9
20260505185519 85 255 0.9 1.7 0.00 0.00 0.00 69 1003.0
20260505185016 85 274 0.9 0.9 0.00 0.00 0.00 69 1003.2
20260505184513 84 292 1.7 2.6 0.00 0.00 0.00 68 1002.8
20260505184009 84 299 0.0 0.0 0.00 0.00 0.00 69 1003.1
20260505183506 84 269 0.9 0.9 0.00 0.00 0.00 69 1003.3
20260505183002 83 248 2.6 5.2 0.00 0.00 0.00 69 1002.9
20260505182454 84 240 2.6 2.6 0.00 0.00 0.00 68 1003.1
20260505181950 84 255 5.2 6.1 0.00 0.00 0.00 67 1003.0
20260505181447 83 238 0.9 0.9 0.00 0.00 0.00 69 1003.1
20260505180944 83 221 0.9 0.9 0.00 0.00 0.00 71 1003.3
20260505180440 83 245 1.7 2.6 0.00 0.00 0.00 71 1003.0
20260505175937 83 292 1.7 1.7 0.00 0.00 0.00 70 1003.3
20260505175433 83 292 0.9 1.7 0.00 0.00 0.00 71 1003.1
20260505174930 83 129 0.9 1.7 0.00 0.00 0.00 71 1002.8
20260505174428 82 223 1.7 1.7 0.00 0.00 0.00 71 1003.1
20260505173923 82 298 0.0 0.9 0.00 0.00 0.00 72 1003.2
20260505173420 82 173 0.9 1.7 0.00 0.00 0.00 72 1003.3
20260505172917 82 110 1.7 2.6 0.00 0.00 0.00 73 1003.2
20260505172415 81 216 4.3 7.8 0.00 0.00 0.00 74 1003.1
20260505171914 81 161 0.9 1.7 0.00 0.00 0.00 73 1003.2
20260505171412 81 293 2.6 2.6 0.00 0.00 0.00 74 1003.4
20260505170908 80 293 0.9 0.9 0.00 0.00 0.00 75 1003.3
20260505170405 81 268 0.9 1.7 0.00 0.00 0.00 74 1003.5
20260505165900 81 280 0.0 0.9 0.00 0.00 0.00 74 1003.2
20260505165356 81 219 0.9 1.7 0.00 0.00 0.00 73 1003.3
20260505164852 80 285 0.9 0.9 0.00 0.00 0.00 74 1003.5
20260505164349 80 329 0.9 1.7 0.00 0.00 0.00 75 1003.3
20260505163847 80 251 1.7 5.2 0.00 0.00 0.00 76 1003.2
20260505163346 80 180 0.9 1.7 0.00 0.00 0.00 76 1003.3
20260505162844 79 228 0.0 0.9 0.00 0.00 0.00 76 1003.0
20260505162340 78 357 1.7 1.7 0.00 0.00 0.00 76 1003.1
20260505161837 79 290 0.9 0.9 0.00 0.00 0.00 76 1003.3
20260505161334 79 174 1.7 2.6 0.00 0.00 0.00 75 1003.1
20260505160831 78 304 1.7 4.3 0.00 0.00 0.00 77 1003.1
20260505160329 78 211 3.5 7.0 0.00 0.00 0.00 76 1002.9
20260505153308 77 158 1.7 1.7 0.00 0.00 0.00 79 1002.6
20260505152805 77 161 0.9 0.9 0.00 0.00 0.00 79 1002.7
20260505152304 77 347 1.7 1.7 0.00 0.00 0.00 79 1002.7
20260505151755 76 197 1.7 2.6 0.00 0.00 0.00 80 1002.8
20260505151253 75 272 2.6 4.3 0.00 0.00 0.00 81 1002.7
20260505150750 76 8 1.7 2.6 0.00 0.00 0.00 81 1002.9
20260505150247 76 227 0.9 0.9 0.00 0.00 0.00 81 1003.0
20260505140217 74 181 0.9 1.7 0.00 0.00 0.00 84 1003.0
20260505130141 72 241 1.7 2.6 0.00 0.00 0.00 86 1002.8
20260505124631 72 187 1.7 1.7 0.00 0.00 0.00 86 1002.5
20260505124127 72 238 1.7 1.7 0.00 0.00 0.00 86 1002.3
20260505123623 72 265 0.0 0.9 0.00 0.00 0.00 86 1002.4
20260505123120 72 219 0.9 0.9 0.00 0.00 0.00 86 1002.4
20260505122617 72 165 1.7 2.6 0.00 0.00 0.00 86 1002.0
20260505122114 72 215 1.7 2.6 0.00 0.00 0.00 86 1001.9
20260505121610 72 237 0.0 0.9 0.00 0.00 0.00 86 1001.8
20260505121107 72 252 0.9 0.9 0.00 0.00 0.00 86 1002.3
20260505120604 72 153 3.5 4.3 0.00 0.00 0.00 86 1001.8
20260505120100 72 262 2.6 4.3 0.00 0.00 0.00 86 1002.2
20260505115554 72 27 2.6 4.3 0.00 0.00 0.00 86 1001.9
20260505115052 72 270 1.7 2.6 0.00 0.00 0.00 86 1001.9
20260505114549 72 341 1.7 1.7 0.00 0.00 0.00 86 1002.0
20260505114045 72 238 0.9 0.9 0.00 0.00 0.00 86 1001.9
20260505113541 72 191 0.9 1.7 0.00 0.00 0.00 85 1001.9
20260505113038 72 96 1.7 2.6 0.00 0.00 0.00 85 1001.5
20260505112534 72 149 2.6 4.3 0.00 0.00 0.00 85 1001.9
20260505112033 72 238 0.9 0.9 0.00 0.00 0.00 85 1001.8
20260505111526 72 249 1.7 2.6 0.00 0.00 0.00 86 1001.6
20260505111023 72 215 0.9 1.7 0.00 0.00 0.00 86 1001.6
20260505110519 71 195 1.7 4.3 0.00 0.00 0.00 86 1001.9
20260505101951 72 229 0.9 1.7 0.00 0.00 0.00 86 1001.7
20260505101449 72 253 0.9 0.9 0.00 0.00 0.00 86 1001.6
20260505100946 72 176 0.9 0.9 0.00 0.00 0.00 86 1001.8
20260505100443 72 184 1.7 4.3 0.00 0.00 0.00 86 1001.7
20260505095939 72 141 2.6 4.3 0.00 0.00 0.00 86 1001.8
20260505095436 72 200 2.6 4.3 0.00 0.00 0.00 86 1001.8
20260505094932 72 270 0.0 0.9 0.00 0.00 0.00 86 1002.2
20260505094429 72 241 1.7 1.7 0.00 0.00 0.00 86 1002.2
20260505093925 71 209 1.7 1.7 0.00 0.00 0.00 86 1002.2
20260505093422 71 166 0.9 0.9 0.00 0.00 0.00 86 1002.2
20260505092919 71 205 1.7 1.7 0.00 0.00 0.00 86 1002.0
20260505092417 71 221 0.9 0.9 0.00 0.00 0.00 86 1002.3
20260505091914 71 313 0.9 1.7 0.00 0.00 0.00 86 1002.4
20260505091412 71 225 0.9 1.7 0.00 0.00 0.00 86 1002.3
20260505090910 71 188 0.9 1.7 0.00 0.00 0.00 86 1002.5
20260505090408 71 180 0.9 0.9 0.00 0.00 0.00 86 1002.4
20260505085905 71 217 0.9 0.9 0.00 0.00 0.00 87 1002.5
20260505085403 71 279 0.9 1.7 0.00 0.00 0.00 86 1002.4
20260505084901 71 267 0.9 0.9 0.00 0.00 0.00 86 1002.4
20260505084359 71 161 3.5 5.2 0.00 0.00 0.00 86 1002.3
20260505083856 71 205 2.6 6.1 0.00 0.00 0.00 86 1002.4
20260505083354 71 224 1.7 1.7 0.00 0.00 0.00 86 1002.3
20260505082849 71 214 0.9 0.9 0.00 0.00 0.00 86 1002.5
20260505082346 71 265 0.9 1.7 0.00 0.00 0.00 86 1002.4
20260505081842 71 278 0.9 0.9 0.00 0.00 0.00 85 1002.4
20260505081339 71 163 1.7 2.6 0.00 0.00 0.00 85 1002.2
20260505080836 72 107 0.9 1.7 0.00 0.00 0.00 85 1002.4
20260505080332 72 136 0.9 0.9 0.00 0.00 0.00 84 1002.7
20260505075827 72 167 0.0 0.9 0.00 0.00 0.00 84 1002.5
20260505075325 72 182 0.9 1.7 0.00 0.00 0.00 84 1002.6
20260505074822 72 120 0.9 0.9 0.00 0.00 0.00 84 1002.6
20260505074319 72 197 0.9 1.7 0.00 0.00 0.00 84 1002.9
20260505073816 72 302 0.9 0.9 0.00 0.00 0.00 83 1002.8
20260505073314 72 156 0.9 1.7 0.00 0.00 0.00 83 1002.8
20260505072811 72 199 0.9 1.7 0.00 0.00 0.00 83 1002.7
20260505072307 73 260 0.0 0.9 0.00 0.00 0.00 82 1003.1
20260505071803 73 199 0.9 0.9 0.00 0.00 0.00 82 1003.1
20260505071300 73 271 0.9 0.9 0.00 0.00 0.00 82 1003.1
20260505070758 73 247 0.9 1.7 0.00 0.00 0.00 82 1003.1
20260505070254 73 178 1.7 1.7 0.00 0.00 0.00 81 1003.4
20260505065749 73 264 0.9 1.7 0.00 0.00 0.00 81 1003.5
20260505065246 73 221 1.7 2.6 0.00 0.00 0.00 81 1003.5
20260505064743 73 255 0.0 0.9 0.00 0.00 0.00 80 1003.5
20260505064241 73 122 2.6 4.3 0.00 0.00 0.00 80 1003.4
20260505063738 73 161 0.9 0.9 0.00 0.00 0.00 80 1003.5
20260505063234 73 192 1.7 1.7 0.00 0.00 0.00 80 1003.7
20260505062730 73 205 0.9 1.7 0.00 0.00 0.00 80 1003.7
20260505062228 73 242 1.7 6.1 0.00 0.00 0.00 80 1003.6
20260505061725 73 161 0.9 0.9 0.00 0.00 0.00 80 1003.9
20260505061223 73 228 0.9 1.7 0.00 0.00 0.00 80 1003.6
20260505060720 73 176 0.9 0.9 0.00 0.00 0.00 80 1003.8
20260505060217 73 124 0.9 1.7 0.00 0.00 0.00 79 1003.7
20260505055712 73 221 1.7 1.7 0.00 0.00 0.00 79 1003.5
20260505055209 73 237 0.9 0.9 0.00 0.00 0.00 79 1003.8
20260505054707 73 247 0.9 1.7 0.00 0.00 0.00 79 1003.9
20260505054204 73 188 1.7 1.7 0.00 0.00 0.00 78 1003.8
20260505053702 73 294 0.9 1.7 0.00 0.00 0.00 78 1003.7
20260505053158 73 196 0.0 0.9 0.00 0.00 0.00 78 1003.9
20260505052655 73 184 1.7 1.7 0.00 0.00 0.00 78 1004.0
20260505052153 73 257 0.0 0.0 0.00 0.00 0.00 78 1004.0
20260505051650 73 257 0.9 0.9 0.00 0.00 0.00 77 1004.0
20260505051148 73 245 0.9 1.7 0.00 0.00 0.00 77 1004.0
20260505050645 73 45 1.7 1.7 0.00 0.00 0.00 77 1004.2
20260505050143 73 202 1.7 1.7 0.00 0.00 0.00 76 1003.9
20260505041613 74 137 4.3 7.0 0.00 0.00 0.00 75 1004.3
20260505041110 74 178 1.7 2.6 0.00 0.00 0.00 74 1004.2
20260505040607 74 76 0.9 1.7 0.00 0.00 0.00 74 1004.4
20260505040104 74 218 1.7 1.7 0.00 0.00 0.00 74 1004.2
20260505035601 74 293 0.9 0.9 0.00 0.00 0.00 74 1004.3
20260505035057 75 150 0.9 1.7 0.00 0.00 0.00 74 1004.3
20260505034554 75 248 0.9 0.9 0.00 0.00 0.00 74 1004.3
20260505034050 75 189 0.9 1.7 0.00 0.00 0.00 73 1004.1
20260505033547 75 265 0.9 1.7 0.00 0.00 0.00 73 1004.2
20260505033046 75 197 0.9 0.9 0.00 0.00 0.00 73 1004.1
20260505032543 75 299 2.6 2.6 0.00 0.00 0.00 73 1004.4
20260505032039 75 168 1.7 1.7 0.00 0.00 0.00 73 1004.4
20260505031537 75 176 0.9 1.7 0.00 0.00 0.00 73 1004.3
20260505031033 75 23 0.9 0.9 0.00 0.00 0.00 72 1004.4
20260505030530 75 295 0.0 0.9 0.00 0.00 0.00 72 1004.5
20260505030026 75 168 0.9 0.9 0.00 0.00 0.00 72 1004.1
20260505025522 75 212 2.6 2.6 0.00 0.00 0.00 72 1004.4
20260505025022 75 226 0.0 0.9 0.00 0.00 0.00 72 1004.6
20260505024518 75 182 0.9 0.9 0.00 0.00 0.00 72 1004.5
20260505024015 75 176 0.9 0.9 0.00 0.00 0.00 72 1004.3
20260505023512 75 258 1.7 1.7 0.00 0.00 0.00 72 1004.5
20260505023009 75 189 0.0 0.9 0.00 0.00 0.00 72 1004.5
20260505022507 75 289 0.0 0.0 0.00 0.00 0.00 72 1004.3
20260505022004 75 242 0.0 0.9 0.00 0.00 0.00 71 1004.2
20260505021500 75 185 1.7 1.7 0.00 0.00 0.00 71 1004.2
20260505020956 75 278 0.9 0.9 0.00 0.00 0.00 71 1004.2
20260505020451 76 195 1.7 1.7 0.00 0.00 0.00 71 1004.1
20260505015948 76 251 2.6 2.6 0.00 0.00 0.00 70 1004.1
20260505015446 76 128 0.9 1.7 0.00 0.00 0.00 70 1004.3
20260505014943 76 282 0.9 0.9 0.00 0.00 0.00 70 1004.2
20260505014440 76 301 1.7 1.7 0.00 0.00 0.00 69 1004.1
20260505013937 76 197 0.9 0.9 0.00 0.00 0.00 69 1004.3
20260505013434 77 218 0.0 0.0 0.00 0.00 0.00 68 1004.3
20260505012931 77 197 0.9 1.7 0.00 0.00 0.00 68 1004.2
20260505012429 77 250 1.7 2.6 0.00 0.00 0.00 68 1004.4
20260505011926 77 191 0.9 0.9 0.00 0.00 0.00 68 1004.2
20260505011422 77 272 1.7 2.6 0.00 0.00 0.00 68 1004.1
20260505010919 77 96 0.9 0.9 0.00 0.00 0.00 68 1004.1
20260505010414 77 228 0.9 0.9 0.00 0.00 0.00 67 1004.2
20260505005910 77 193 0.9 1.7 0.00 0.00 0.00 67 1004.0
20260505005408 77 118 0.9 1.7 0.00 0.00 0.00 67 1004.0
20260505004905 77 224 1.7 1.7 0.00 0.00 0.00 66 1004.1
20260505004401 77 138 1.7 1.7 0.00 0.00 0.00 66 1004.0
20260505003858 78 221 0.9 1.7 0.00 0.00 0.00 66 1003.9
20260505003356 78 130 1.7 1.7 0.00 0.00 0.00 65 1004.0
20260505002852 78 231 1.7 1.7 0.00 0.00 0.00 65 1004.0